[[{"header":{"parameterUnit":"m.s-1","parameterCategory":1,"la1":30.2991,"la2":30.254,"lo1":-89.0895,"lo2":-89.0444,"dy":0.0017,"dx":0.0017,"nx":28,"ny":28,"refTime":"2025-04-19T21:00:00:Z","depth":0,"parameterNumber":2,"parameterNumberName":"U-component_of_WINDS"},"data":[0,0,0,0,0,0,0,0,0,0,0,0,0,0,0,0,0,0,0,0,0,0,0,0,0,0,0,0,0,0,0,0,0,0,0,0,0,0,0,0,0,0,0,0,0,0,0,0,0,0,0,0,0,0,0,0,0,0,-5.3998,-5.3999,0,-5.4114,-5.4116,-5.4117,-5.4087,-5.4085,-5.4083,-5.408,-5.4198,-5.4203,-5.4208,0,0,0,0,0,0,0,0,0,0,0,0,0,-5.3749,-5.3753,-5.3998,-5.3999,-5.4001,-5.4114,-5.4116,-5.4117,-5.4088,-5.4085,-5.4082,-5.4079,-5.4196,-5.4202,-5.4208,0,0,0,0,0,0,0,0,0,0,0,0,0,-5.386,-5.3755,-5.3998,-5.4,-5.4001,-5.4114,-5.4116,-5.4118,-5.4088,-5.4085,-5.4081,-5.4078,-5.4194,-5.4201,-5.4209,-5.4326,0,0,-5.4233,-5.4237,0,0,0,0,0,0,0,0,-5.3854,-5.3869,-5.3998,-5.4,-5.4001,-5.4083,-5.4071,-5.4188,-5.4089,-5.4055,-5.408,-5.4076,-5.4162,-5.4172,-5.4202,-5.4332,-5.4337,-5.4234,-5.4239,-5.4242,-5.4244,0,0,0,0,0,0,0,-5.3846,-5.3864,-5.4044,-5.4,-5.4002,-5.3994,-5.4006,-5.4093,-5.4126,-5.4058,-5.4056,-5.407,-5.4162,-5.4194,-5.4204,-5.4339,-5.4234,-5.4241,-5.4246,-5.4249,-5.4571,-5.4574,0,0,0,0,0,0,-5.3837,-5.3858,-5.404,-5.4047,-5.3918,-5.4002,-5.4015,-5.406,-5.4125,-5.4132,-5.4073,-5.4068,-5.4182,-5.4195,-5.4208,-5.4349,-5.4242,-5.4249,-5.4254,-5.4567,-5.4572,-5.4576,0,0,0,0,0,0,-5.3832,-5.3854,-5.4036,-5.3952,-5.3975,-5.401,-5.406,-5.4064,-5.4096,-5.4137,-5.4142,-5.4099,-5.418,-5.4197,-5.4297,-5.4352,-5.4253,-5.426,-5.4562,-5.4568,-5.4574,-5.4631,0,0,0,0,0,0,-5.3825,-5.3852,-5.3897,-5.3953,-5.3979,-5.4123,-5.4064,-5.4069,-5.411,-5.4105,-5.4163,-5.4169,-5.4179,-5.4286,-5.4305,-5.4361,-5.4266,-5.4558,-5.4565,-5.4572,-5.4624,-5.4638,-5.465,0,0,0,0,0,-5.3816,-5.3908,-5.39,-5.3922,-5.4037,-5.4126,-5.4141,-5.4151,-5.4114,-5.416,-5.4186,-5.4167,-5.4344,-5.4296,-5.4318,-5.4377,-5.4554,-5.4563,-5.4571,-5.4619,-5.4635,-5.465,0,0,0,0,0,0,-5.3856,-5.3916,-5.3906,-5.402,-5.4069,-5.4121,-5.4178,-5.4168,-5.4227,-5.422,-5.4229,-5.4242,-5.4345,-5.4371,-5.4317,-5.4494,-5.4444,-5.4457,-5.4472,-5.4489,-5.4501,-5.4491,-5.4273,0,0,0,0,0,-5.3879,-5.3947,-5.3995,-5.4091,-5.4116,-5.4143,-5.4183,-5.4186,-5.4236,-5.4256,-5.429,-5.4339,-5.4406,-5.4449,-5.4513,-5.4629,-5.4641,-5.4681,-5.4694,-5.4704,-5.4714,-5.4777,-5.4795,-5.4604,-5.4604,-5.4604,0,0,-5.3925,-5.3966,-5.4008,-5.41,-5.4138,-5.4208,-5.416,-5.4237,-5.4289,-5.4268,-5.4364,-5.4391,-5.4447,-5.4555,-5.4605,-5.4581,-5.477,-5.4715,-5.4723,-5.4728,-5.4788,-5.4806,-5.4822,-5.461,-5.4609,-5.4608,0,0,-5.4044,-5.4083,-5.4166,-5.4206,-5.4264,-5.4282,-5.4303,-5.4358,-5.4375,-5.4472,-5.4458,-5.452,-5.4634,-5.4674,-5.4709,-5.4846,-5.4831,-5.4867,-5.4932,-5.4993,-5.5008,-5.5022,-5.5069,-5.5086,-5.4878,-5.4878,-5.4878,0,-5.4094,-5.4199,-5.421,-5.4288,-5.4328,-5.4314,-5.4398,-5.4436,-5.4512,-5.454,-5.4512,-5.4656,-5.4692,-5.481,-5.4843,-5.4873,-5.4895,-5.4859,-5.5005,-5.5019,-5.5031,-5.5076,-5.5094,-5.4882,-5.4881,-5.4881,-5.4881,0,-5.4257,-5.433,-5.4391,-5.4465,-5.4513,-5.4593,-5.4615,-5.4662,-5.4662,-5.4683,-5.4782,-5.4826,-5.4898,-5.4927,-5.4927,-5.5045,-5.5027,-5.5003,-5.4952,-5.5053,-5.5095,-5.5113,-5.4887,-5.4886,-5.4885,-5.4884,0,0,-5.4402,-5.4483,-5.4504,-5.4538,-5.4603,-5.4659,-5.474,-5.4811,-5.485,-5.4904,-5.497,-5.5068,-5.5046,-5.5086,-5.5091,-5.5146,-5.5249,-5.5114,-5.5116,-5.5136,-5.538,-5.5396,-5.5416,-5.5241,-5.5244,-5.5247,-5.5374,0,-5.4525,-5.4666,-5.4679,-5.4805,-5.4873,-5.4862,-5.4932,-5.4979,-5.5001,-5.5061,-5.5086,-5.5154,-5.5121,-5.5145,-5.5198,-5.5225,-5.5298,-5.5217,-5.5301,-5.5304,-5.5285,-5.5438,-5.5455,-5.5573,-5.5391,-5.5394,-5.5396,0,-5.4688,-5.4747,-5.488,-5.4935,-5.4964,-5.5026,-5.5092,-5.5151,-5.5204,-5.5216,-5.5262,-5.5261,-5.5342,-5.5291,-5.5403,-5.5348,-5.5384,-5.5402,-5.5407,-5.5413,-5.5354,-5.5446,-5.5611,-5.5628,-5.5422,-5.542,-5.5418,0,-5.4778,-5.4891,-5.4985,-5.5014,-5.5082,-5.5126,-5.5156,-5.5206,-5.5248,-5.5306,-5.5333,-5.54,-5.5436,-5.5488,-5.5504,-5.5465,-5.5615,-5.5565,-5.5627,-5.5626,-5.5656,-5.5653,-5.5827,-5.5684,-5.5684,-5.5683,-5.5683,0,-5.4912,-5.4994,-5.5026,-5.5084,-5.5175,-5.5189,-5.5278,-5.5306,-5.5351,-5.5413,-5.5409,-5.5467,-5.5487,-5.5549,-5.5562,-5.5652,-5.5669,-5.5681,-5.5683,-5.568,-5.5678,-5.5701,-5.5692,-5.5688,-5.5687,-5.5686,-5.5685,0,-5.5027,-5.5052,-5.5154,-5.521,-5.5226,-5.529,-5.5338,-5.5393,-5.5416,-5.5495,-5.5514,-5.5549,-5.5621,-5.5644,-5.5731,-5.574,-5.5845,-5.5841,-5.5827,-5.5826,-5.5886,-5.5879,-5.6078,-5.6104,-5.5946,-5.5948,-5.5949,0,-5.511,-5.5172,-5.5236,-5.5277,-5.5309,-5.5377,-5.542,-5.5437,-5.5482,-5.5548,-5.5595,-5.5668,-5.5726,-5.5843,-5.5875,-5.5942,-5.5938,-5.6004,-5.5948,-5.5943,-5.5936,-5.5931,-5.5937,-5.6013,-5.6014,-5.6016,-5.6017,0,-5.5254,-5.5264,-5.5326,-5.5394,-5.5445,-5.5499,-5.5551,-5.5585,-5.561,-5.5661,-5.5735,-5.5781,-5.5871,-5.5942,-5.6011,-5.6041,-5.6033,-5.6035,-5.6052,-5.6048,-5.6036,-5.6041,-5.5853,-5.6029,-5.6028,-5.6027,-5.6026,-5.6026,-5.5354,-5.5409,-5.5462,-5.5532,-5.5573,-5.5621,-5.5676,-5.5706,-5.5768,-5.5843,-5.585,-5.593,-5.5982,-5.6073,-5.6107,-5.617,-5.6151,-5.6177,-5.6183,-5.6188,-5.6192,-5.6029,-5.6183,-5.6183,-5.6182,-5.6182,-5.6182,0,-5.5496,-5.553,-5.5594,-5.5667,-5.5722,-5.5712,-5.5769,-5.5815,-5.5886,-5.5936,-5.5993,-5.6079,-5.6149,-5.6188,-5.6257,-5.63,-5.6298,-5.6317,-5.6313,-5.6319,-5.6206,-5.6183,-5.6317,-5.6317,-5.6317,-5.6317,-5.6317,-5.6317,-5.5576,-5.5668,-5.5684,-5.5796,-5.5829,-5.5908,-5.5941,-5.5986,-5.6026,-5.6122,-5.618,-5.6205,-5.6251,-5.6323,-5.6387,-5.6396,-5.6421,-5.6442,-5.6449,-5.6342,-5.6328,-5.6314,-5.6293,-5.6448,-5.6448,-5.6557,-5.6558,-5.6559]},{"header":{"parameterUnit":"m.s-1","parameterCategory":1,"la1":30.2991,"la2":30.254,"lo1":-89.0895,"lo2":-89.0444,"dy":0.0017,"dx":0.0017,"nx":28,"ny":28,"refTime":"2025-04-19T21:00:00:Z","depth":0,"parameterNumber":3,"parameterNumberName":"V-component_of_WINDS"},"data":[0,0,0,0,0,0,0,0,0,0,0,0,0,0,0,0,0,0,0,0,0,0,0,0,0,0,0,0,0,0,0,0,0,0,0,0,0,0,0,0,0,0,0,0,0,0,0,0,0,0,0,0,0,0,0,0,0,0,3.2299,3.2299,0,3.2347,3.2347,3.2348,3.2346,3.2345,3.2345,3.2344,3.2391,3.2392,3.2394,0,0,0,0,0,0,0,0,0,0,0,0,0,3.2206,3.2207,3.2299,3.2299,3.23,3.2347,3.2347,3.2348,3.2346,3.2345,3.2344,3.2344,3.239,3.2392,3.2394,0,0,0,0,0,0,0,0,0,0,0,0,0,3.2249,3.2208,3.2299,3.2305,3.2306,3.2346,3.2347,3.2348,3.2346,3.2345,3.2344,3.2343,3.2389,3.2392,3.2395,3.2432,0,0,3.2403,3.2404,0,0,0,0,0,0,0,0,3.2246,3.2252,3.2303,3.2304,3.2306,3.2339,3.2331,3.2376,3.2346,3.2331,3.2344,3.2343,3.2374,3.2378,3.2389,3.2434,3.2436,3.2403,3.2405,3.2406,3.2407,0,0,0,0,0,0,0,3.2243,3.225,3.2318,3.2304,3.2306,3.2305,3.231,3.234,3.2357,3.2332,3.2332,3.2338,3.2375,3.2386,3.239,3.2437,3.2403,3.2406,3.2408,3.2409,3.2516,3.2517,0,0,0,0,0,0,3.2239,3.2248,3.2316,3.2319,3.2273,3.2307,3.2313,3.2329,3.2357,3.236,3.2339,3.2338,3.2382,3.2387,3.2392,3.2438,3.2406,3.2409,3.241,3.2515,3.2516,3.2518,0,0,0,0,0,0,3.2237,3.2245,3.2314,3.2284,3.2292,3.231,3.2329,3.2331,3.2343,3.2362,3.2365,3.2348,3.2382,3.2388,3.2422,3.244,3.241,3.2413,3.2513,3.2515,3.2517,3.253,0,0,0,0,0,0,3.2235,3.2245,3.2259,3.2284,3.2294,3.2344,3.233,3.2333,3.2348,3.2347,3.2371,3.2374,3.2381,3.2418,3.2425,3.2443,3.2415,3.2512,3.2514,3.2516,3.2528,3.2532,3.2536,0,0,0,0,0,3.2231,3.226,3.226,3.2268,3.2312,3.2345,3.2351,3.2359,3.2349,3.2364,3.2377,3.2374,3.2437,3.2422,3.243,3.2448,3.2511,3.2514,3.2516,3.2527,3.2532,3.2536,0,0,0,0,0,0,3.2235,3.2263,3.2263,3.2301,3.2321,3.2345,3.2363,3.2363,3.2386,3.2384,3.2393,3.2398,3.2433,3.2444,3.2427,3.2487,3.2473,3.2477,3.2478,3.2483,3.2486,3.2483,3.2417,0,0,0,0,0,3.2241,3.2265,3.2288,3.2319,3.233,3.2345,3.2359,3.2364,3.2385,3.2393,3.2408,3.2428,3.2453,3.2468,3.2492,3.253,3.2536,3.2547,3.2551,3.2554,3.2557,3.258,3.2586,3.2526,3.2526,3.2526,0,0,3.2251,3.227,3.2285,3.2321,3.2337,3.2362,3.2352,3.2379,3.2398,3.2397,3.2431,3.2443,3.2466,3.2503,3.252,3.2513,3.2575,3.2557,3.2559,3.2561,3.2583,3.2589,3.2594,3.2528,3.2528,3.2527,0,0,3.2285,3.2301,3.2329,3.2346,3.2371,3.2382,3.2389,3.2413,3.2421,3.2456,3.2456,3.2479,3.2521,3.2538,3.2551,3.2594,3.2592,3.2601,3.262,3.2642,3.2647,3.2651,3.2667,3.2672,3.2605,3.2605,3.2605,0,3.2295,3.2334,3.2343,3.2372,3.2388,3.239,3.2419,3.2434,3.2465,3.2476,3.2469,3.2523,3.2538,3.258,3.2591,3.2602,3.261,3.2598,3.2645,3.265,3.2654,3.2669,3.2675,3.2606,3.2606,3.2605,3.2605,0,3.2346,3.2373,3.2393,3.2424,3.2443,3.2471,3.2485,3.2503,3.2507,3.2518,3.2554,3.2573,3.2601,3.2611,3.2614,3.2654,3.2649,3.2643,3.2629,3.266,3.2674,3.268,3.2607,3.2607,3.2606,3.2606,0,0,3.2381,3.2419,3.2426,3.2442,3.247,3.2492,3.2521,3.2549,3.2565,3.2586,3.2611,3.2648,3.2643,3.2659,3.2665,3.2684,3.2718,3.2676,3.2677,3.2683,3.2763,3.2768,3.2774,3.2717,3.2718,3.2719,3.2762,0,3.2417,3.2469,3.248,3.2525,3.2551,3.2554,3.258,3.26,3.2612,3.2636,3.2648,3.2674,3.2666,3.2676,3.2695,3.2709,3.2734,3.2706,3.274,3.2741,3.2734,3.2781,3.2785,3.2825,3.2767,3.2768,3.2769,0,3.2466,3.2491,3.2539,3.2567,3.2578,3.2601,3.2629,3.2651,3.2675,3.2682,3.2702,3.2705,3.2736,3.2721,3.2764,3.2745,3.276,3.2769,3.2771,3.2774,3.2757,3.2786,3.2837,3.2843,3.2778,3.2777,3.2776,0,3.2488,3.2534,3.2569,3.2581,3.2614,3.263,3.2644,3.2667,3.2684,3.2709,3.272,3.2748,3.2763,3.2784,3.2796,3.2784,3.2838,3.2823,3.2845,3.2844,3.2855,3.2854,3.2909,3.2865,3.2865,3.2864,3.2864,0,3.2528,3.2557,3.2579,3.2601,3.2634,3.2646,3.2679,3.2693,3.2714,3.2738,3.2743,3.2765,3.2779,3.2804,3.2813,3.2848,3.2854,3.2861,3.2863,3.2861,3.286,3.287,3.2868,3.2866,3.2866,3.2865,3.2865,0,3.2557,3.2573,3.2612,3.264,3.2648,3.2672,3.2696,3.2717,3.273,3.2761,3.2769,3.2788,3.2818,3.2832,3.2868,3.2875,3.2914,3.2914,3.2906,3.2907,3.2927,3.2925,3.2991,3.3,3.2949,3.295,3.295,0,3.2582,3.2605,3.2636,3.2654,3.2669,3.2696,3.2714,3.2728,3.2746,3.2777,3.2794,3.2825,3.2849,3.2897,3.2914,3.2942,3.2943,3.2964,3.2947,3.2945,3.2944,3.2943,3.2945,3.2967,3.2968,3.2968,3.2968,0,3.2623,3.2631,3.2657,3.2687,3.2709,3.2733,3.2756,3.277,3.2787,3.2808,3.2839,3.2859,3.2897,3.2927,3.2957,3.2971,3.2973,3.2974,3.298,3.2978,3.2973,3.2976,3.2915,3.2972,3.2972,3.2971,3.2971,3.2971,3.2651,3.2673,3.2699,3.2729,3.2748,3.277,3.2792,3.2808,3.2835,3.2868,3.2874,3.2907,3.2932,3.2973,3.2988,3.3015,3.301,3.3019,3.3021,3.3023,3.3025,3.2969,3.302,3.302,3.302,3.302,3.302,0,3.2694,3.2711,3.2739,3.2772,3.2796,3.2797,3.2823,3.2843,3.2873,3.2896,3.2921,3.2957,3.2987,3.3008,3.3038,3.3055,3.3057,3.3063,3.3061,3.3065,3.3027,3.3019,3.3061,3.3061,3.3061,3.3061,3.3061,3.3061,3.2719,3.2755,3.2766,3.2812,3.2829,3.2863,3.2878,3.2899,3.2918,3.2959,3.2984,3.2998,3.302,3.3053,3.308,3.3085,3.3096,3.3103,3.3108,3.3072,3.3067,3.3063,3.3055,3.3105,3.3105,3.3143,3.3144,3.3144]}]]